EW1033 Weather Reports


time (UTC)temp
C
wind
direction
speed
KPH
gust
KPH
rain 1hr
cm
rain 24hr
cm
rain mn
cm
humidity
%
barometer
mb
20210920063059 22 301 1.6 4.8 0.00 0.00 0.00 63 1008.3
20210920061556 22 300 1.6 4.8 0.00 0.00 0.00 63 1008.1
20210920060136 22 300 0.0 0.0 0.00 0.00 0.00 61 1008.0
20210920054614 23 300 0.0 0.0 0.00 0.00 0.00 60 1007.9
20210920053040 23 300 0.0 0.0 0.00 0.00 0.00 57 1007.9
20210920051542 25 300 0.0 0.0 0.00 0.00 0.00 55 1007.8
20210920050126 25 300 0.0 0.0 0.00 0.00 0.00 56 1007.7
20210920044633 25 300 0.0 0.0 0.00 0.00 0.00 56 1007.7
20210920043030 26 300 0.0 4.8 0.00 0.00 0.00 53 1007.7
20210920041550 26 300 1.6 4.8 0.00 0.00 0.00 51 1007.6
20210920040114 26 300 1.6 8.0 0.00 0.00 0.00 52 1007.5
20210920034526 26 300 0.0 0.0 0.00 0.00 0.00 53 1007.4
20210920033050 26 300 0.0 0.0 0.00 0.00 0.00 52 1007.1
20210920031532 27 300 0.0 0.0 0.00 0.00 0.00 51 1006.9
20210920030049 27 300 0.0 0.0 0.00 0.00 0.00 50 1006.6
20210920024546 27 300 0.0 0.0 0.00 0.00 0.00 49 1006.5
20210920021532 28 300 0.0 3.2 0.00 0.00 0.00 44 1006.1
20210920020053 30 300 0.0 8.0 0.00 0.00 0.00 42 1005.8
20210920014525 30 300 1.6 9.7 0.00 0.00 0.00 41 1005.6
20210920013025 30 300 0.0 6.4 0.00 0.00 0.00 40 1005.4
20210920011521 31 300 1.6 9.7 0.00 0.00 0.00 40 1005.4
20210920010027 31 300 3.2 12.9 0.00 0.00 0.00 39 1005.4
20210920004533 31 301 4.8 12.9 0.00 0.00 0.00 39 1005.4
20210920003046 31 292 8.0 24.1 0.00 0.00 0.00 41 1005.4
20210920001520 31 294 12.9 30.6 0.00 0.00 0.00 44 1005.4
20210920000015 32 282 14.5 25.7 0.00 0.00 0.00 40 1005.3
20210919234514 33 281 16.1 30.6 0.00 0.00 0.00 39 1005.2
20210919233028 33 283 6.4 19.3 0.00 0.00 0.00 39 1005.2
20210919231548 34 280 9.7 19.3 0.00 0.00 0.00 38 1005.2
20210919230025 34 283 6.4 17.7 0.00 0.00 0.00 37 1005.1
20210919224541 35 283 6.4 17.7 0.00 0.00 0.00 37 1005.1
20210919223010 35 284 9.7 20.9 0.00 0.00 0.00 37 1005.3
20210919221546 35 282 8.0 19.3 0.00 0.00 0.00 36 1005.4
20210919220032 35 281 3.2 16.1 0.00 0.00 0.00 37 1005.5
20210919214506 35 281 0.0 19.3 0.00 0.00 0.00 36 1005.8
20210919213003 35 285 0.0 8.0 0.00 0.00 0.00 38 1006.0
20210919211642 33 285 6.4 19.3 0.00 0.00 0.00 39 1006.2
20210919210150 35 285 0.0 12.9 0.00 0.00 0.00 37 1006.4
20210919204617 35 285 3.2 11.3 0.00 0.00 0.00 37 1006.6
20210919203123 34 284 4.8 14.5 0.00 0.00 0.00 38 1006.9
20210919201720 34 284 0.0 9.7 0.00 0.00 0.00 38 1007.1
20210919200433 33 284 0.0 11.3 0.00 0.00 0.00 39 1007.5
20210919194654 34 284 3.2 11.3 0.00 0.00 0.00 41 1007.7
20210919193044 33 284 3.2 9.7 0.00 0.00 0.00 41 1007.9
20210919191553 33 284 0.0 9.7 0.00 0.00 0.00 42 1008.2
20210919190038 33 284 0.0 8.0 0.00 0.00 0.00 43 1008.4
20210919184553 32 284 0.0 9.7 0.00 0.00 0.00 43 1008.7
20210919183038 32 284 0.0 9.7 0.00 0.00 0.00 45 1008.9
20210919181556 32 284 4.8 11.3 0.00 0.00 0.00 44 1009.2
20210919180036 31 284 0.0 8.0 0.00 0.00 0.00 47 1009.3
20210919174522 31 284 0.0 9.7 0.00 0.00 0.00 51 1009.5
20210919173019 30 284 0.0 6.4 0.00 0.00 0.00 52 1009.7
20210919171526 30 284 0.0 0.0 0.00 0.00 0.00 52 1009.9
20210919170043 29 284 0.0 6.4 0.00 0.00 0.00 55 1010.1
20210919164508 29 284 0.0 0.0 0.00 0.00 0.00 56 1010.2
20210919163005 28 284 0.0 4.8 0.00 0.00 0.00 58 1010.3
20210919161529 27 284 0.0 0.0 0.00 0.00 0.00 62 1010.4
20210919160138 27 284 0.0 0.0 0.00 0.00 0.00 64 1010.4
20210919154638 26 284 0.0 3.2 0.00 0.00 0.00 66 1010.4
20210919153517 26 284 0.0 1.6 0.00 0.00 0.00 66 1010.4
20210919151728 25 284 0.0 0.0 0.00 0.00 0.00 67 1010.3
20210919150148 25 284 0.0 3.2 0.00 0.00 0.00 71 1010.4
20210919144601 23 284 0.0 1.6 0.00 0.00 0.00 73 1010.4
20210919143052 23 277 0.0 0.0 0.00 0.00 0.00 76 1010.3
20210919141616 22 277 0.0 0.0 0.00 0.00 0.00 78 1010.4
20210919140041 21 277 0.0 0.0 0.00 0.00 0.00 81 1010.3
20210919134600 21 277 0.0 0.0 0.00 0.00 0.00 85 1010.1
20210919133056 20 277 0.0 0.0 0.00 0.00 0.00 85 1009.9
20210919131558 20 277 0.0 0.0 0.00 0.00 0.00 86 1009.6
20210919130030 20 277 0.0 0.0 0.00 0.00 0.00 85 1009.6
20210919124608 20 277 0.0 0.0 0.00 0.00 0.00 85 1009.6
20210919123032 20 277 0.0 0.0 0.00 0.00 0.00 85 1009.5
20210919121542 20 277 0.0 0.0 0.00 0.00 0.00 84 1009.4
20210919120030 21 277 0.0 0.0 0.00 0.00 0.00 84 1009.3
20210919114605 21 277 0.0 0.0 0.00 0.00 0.00 83 1009.3
20210919113108 21 277 0.0 0.0 0.00 0.00 0.00 83 1009.1
20210919111552 21 277 0.0 0.0 0.00 0.00 0.00 82 1009.0
20210919110026 21 277 0.0 0.0 0.00 0.00 0.00 82 1009.0
20210919104523 21 277 0.0 0.0 0.00 0.00 0.00 82 1009.0
20210919103055 21 277 0.0 0.0 0.00 0.00 0.00 81 1009.0
20210919101543 21 277 0.0 0.0 0.00 0.00 0.00 82 1009.0
20210919100013 21 277 0.0 0.0 0.00 0.00 0.00 81 1009.3
20210919094515 22 277 0.0 0.0 0.00 0.00 0.00 80 1009.5
20210919093013 22 277 0.0 0.0 0.00 0.00 0.00 80 1009.6
20210919091519 22 277 0.0 0.0 0.00 0.00 0.00 79 1009.6
20210919090004 22 277 0.0 0.0 0.00 0.00 0.00 79 1009.6
20210919084509 22 277 0.0 0.0 0.00 0.00 0.00 79 1009.6
20210919083117 22 277 0.0 0.0 0.00 0.00 0.00 78 1009.8
20210919081619 23 277 0.0 0.0 0.00 0.00 0.00 78 1009.9
20210919080121 23 277 0.0 0.0 0.00 0.00 0.00 78 1009.9
20210919074627 23 277 0.0 0.0 0.00 0.00 0.00 78 1010.0
20210919073153 23 277 0.0 0.0 0.00 0.00 0.00 77 1010.2
20210919071622 23 277 0.0 0.0 0.00 0.00 0.00 77 1010.2
20210919070120 23 277 0.0 0.0 0.00 0.00 0.00 75 1010.5
20210919064709 24 277 0.0 0.0 0.00 0.00 0.00 73 1010.5